Location: Unspecified
(48.5539°N, 71.6350°W)
Time: 16:32:07
(UTC-05:00)

ISS - Pass Details

Date: 24 January 2019
Orbit: 403 x 411 km, 51.6° (Epoch: 23 February)

Event Time Altitude Azimuth Distance (km) Brightness Sun altitude
Rises 22:41:33 0° 291° (WNW) 2,349 - -56.6°
Reaches altitude 10° 22:43:39 10° 291° (WNW) 1,486 - -56.8°
Maximum altitude 22:46:59 89° 14° (NNE) 418 - -57.1°
Drops below altitude 10° 22:50:19 10° 112° (ESE) 1,483 - -57.4°
Sets 22:52:24 0° 112° (ESE) 2,343 - -57.6°
